Regional Weather Roundup
Issued by NWS

Home | Current Version | Previous Version | Text Only | Print | Product List | Glossary Off
Versions: 1 2 3 4 5 6 7 8 9 10 11 12 13 14 15 16 17 18 19 20 21 22 23 24 25 26 27 28 29 30 31 32 33 34 35 36 37 38 39 40 41 42 43 44 45 46 47 48 49 50

000
ASUS45 KTFX 270010
RWRMT
MONTANA REGIONAL WEATHER ROUNDUP
NATIONAL WEATHER SERVICE GREAT FALLS MT
600 PM MDT MON SEP 26 2016

NOTE: "FAIR" INDICATES FEW OR NO CLOUDS BELOW 12000 FEET WITH NO
SIGNIFICANT WEATHER AND/OR OBSTRUCTIONS TO VISIBILITY.

MTZ001>007-043-270100-
WEST OF THE DIVIDE

CITY           SKY/WX    TMP DP  RH WIND       PRES   REMARKS
KALISPELL      SUNNY     73  45  36 S8        30.15F
MISSOULA       SUNNY     76  47  35 CALM      30.18F
BUTTE          CLOUDY    73  36  25 NW8       30.29F
MULLAN PASS    SUNNY     66  40  38 VRB6      30.31F
ANACONDA         N/A     73  39  29 N8        30.26F
DEER LODGE       N/A     73  37  27 N3        30.28F
EUREKA           N/A     79  43  27 S5        30.11F
HAMILTON         N/A     75  50  41 CALM      30.18F
LIBBY            N/A     77  46  33 CALM      30.10F
PLAINS           N/A     80  47  31 E3        30.12F
RONAN            N/A     76  47  35 W5        30.20F
$$

MTZ008-052>055-270100-
SOUTHWEST MONTANA

CITY           SKY/WX    TMP DP  RH WIND       PRES   REMARKS
BOZEMAN        CLOUDY    73  45  36 NE3       30.25F
DILLON         CLOUDY    76  39  26 VRB3      30.26
W YELLOWSTONE  CLOUDY    66  39  37 SW12      30.39S
ENNIS          SUNNY     73  32  21 NE5       30.33F
THREE FORKS      N/A     74  14  10 E1        30.20F
$$

MTZ009-010-012-014-046-048-049-054-270100-
EAST SLOPES AND CENTRAL MONTANA

CITY           SKY/WX    TMP DP  RH WIND       PRES   REMARKS
CUT BANK       SUNNY     74  37  26 SW13G21   30.11F
GREAT FALLS    SUNNY     74  41  30 SW15      30.13F
MALMSTROM AFB  SUNNY     74  42  30 SW13      30.13F
HELENA         CLOUDY    78  42  27 VRB3      30.19F
AUGUSTA          N/A     75  35  23 W10       30.17F
BOWMANS CRNR     N/A     74  36  25 SW9       30.16F
CHOTEAU          N/A     77  37  24 W9        30.15F
CONRAD           N/A     78  41  26 SW9       30.13F
FAIRFIELD        N/A     78  35  21 W7        30.12F
POWER            N/A     74  40  28 SW14      30.12F
RAYNESFORD       N/A     75  38  26 SW13      30.17F
$$

MTZ011-013-016-021-045-047-050-051-270100-
NORTH CENTRAL MONTANA

CITY           SKY/WX    TMP DP  RH WIND       PRES   REMARKS
HAVRE          SUNNY     76  46  34 S14       30.06F
LEWISTOWN      CLOUDY    72  44  36 W5        30.19F
N BAR RANCH      N/A     72  45  37 CALM      30.22F
CHINOOK          N/A     72  48  43 E7        30.07F
DENTON           N/A     73  47  39 NE6       30.11F
GEYSER           N/A     75  35  23 W10       30.17F
GRASS RANGE      N/A     70  49  46 E6        30.14F
JUDITH GAP       N/A     69  47  46 N6        30.21F
ROY              N/A     70  48  45 MISG      30.14F
STANFORD         N/A     72  44  37 S5        30.19F
WINIFRED         N/A     71  46  41 MISG      30.15F
$$

MTZ017>020-022>027-061-062-270100-
NORTHEAST MONTANA

CITY           SKY/WX    TMP DP  RH WIND       PRES   REMARKS
GLASGOW        PTCLDY    69  44  40 SW3       30.11F
JORDAN           N/A     70  48  45 W3        30.14F
SIDNEY         CLEAR     67  40  37 W7        30.11F
WOLF POINT     CLEAR     67  46  47 SW7       30.11F
POPLAR           N/A     68  43  40 W8        30.11F
SCOBEY           N/A     69  38  32 W5        30.10
$$

MTZ028>42-056>058-270100-
SOUTHCENTRAL AND SOUTHEAST MONTANA

CITY           SKY/WX    TMP DP  RH WIND       PRES   REMARKS
BAKER          CLEAR     65  39  38 NW9       30.19F
BILLINGS       CLOUDY    72  45  37 SW10      30.19F
LIVINGSTON     CLOUDY    74  42  31 NW5       30.24F
MILES CITY     CLOUDY    70  46  42 W5        30.16F
BIG TIMBER     SUNNY     73  41  31 W16       30.24S
EKALAKA          N/A     62  41  46 W7        30.17F
FORSYTH          N/A     72  46  40 CALM      30.17F
HARLOWTON        N/A     70  41  34 W14       30.19F
LAUREL           N/A     71  43  36 S8        30.17F
ROUNDUP          N/A     75  44  33 SE5       30.07F
$$

REGIONAL REPORTS...DAKOTAS

CITY           SKY/WX    TMP DP  RH WIND       PRES   REMARKS
WILLISTON      CLOUDY    68  40  35 NW5       30.10F
MINOT          CLEAR     62  36  37 NW14      30.06F
DICKINSON      CLOUDY    62  39  42 NW6       30.14S
CROSBY           N/A     63  36  36 NW7       30.11F
WATFORD CITY     N/A     64  41  42 W6        30.11F
BISMARCK       CLEAR     65  35  33 NW13G23   30.09F
GRAND FORKS    CLEAR     60  40  47 NW12      29.92S
FARGO          CLEAR     63  26  24 NW16G28   29.93S
BUFFALO SD       N/A     67  41  38 NW16      30.12S
RAPID CITY     CLEAR     68  40  35 N18       30.19F
$$

REGIONAL REPORTS...WYOMING/IDAHO/WASHINGTON

CITY           SKY/WX    TMP DP  RH WIND       PRES   REMARKS
GILLETTE       CLOUDY    65  45  48 NW9       30.26F
SHERIDAN       CLEAR     69  47  45 CALM      30.25F
BUFFALO WY     CLEAR     65  43  44 S3        30.30F
CODY           CLOUDY    66  46  48 SE8       30.30F
YELLOWSTONE LA   N/A     58  39  49 CALM      30.47F
IDAHO FALLS    CLOUDY    71  38  29 CALM      30.31F
SALMON         SUNNY     73  43  33 NW3       30.21F
BOISE          SUNNY     84  38  19 S5        30.15F
SPOKANE        MOSUNNY   82  45  27 NE6       30.08F
$$

REGIONAL REPORTS...ALBERTA

CITY           SKY/WX    TMP DP  RH WIND       PRES   REMARKS
EDMONTON       MOSUNNY   75  43  31 S7        29.85F
CALGARY        MOSUNNY   73  30  20 SE6       29.96F
LETHBRIDGE     MOSUNNY   77  41  27 W16       30.01F
MEDICINE HAT   SUNNY     77  43  29 SW5       29.98F
WATERTON GATE    N/A     70  39  32 SW16G24     N/A
MILK RIVER       N/A     77  39  25 W9          N/A
$$

REGIONAL REPORTS...SASKATCHEWAN

CITY           SKY/WX    TMP DP  RH WIND       PRES   REMARKS
SWIFT CURRENT  CLEAR     68  43  40 SE6       30.06F
REGINA         PTCLDY    61  41  48 NW6       30.08F
SASKATOON      PTCLDY    66  39  37 S5        30.05F
CYPRESS HILLS    N/A     64  39  39 S9          N/A
VAL MARIE        N/A     70  41  35 SW7         N/A
ROCKGLEN         N/A     64  39  39 NW6         N/A
ASSINIBOIA       N/A     73  39  29 S10         N/A
$$



USA.gov is the U.S. government's official web portal to all federal, state and local government web resources and services.